Location: Cuzcurrita-R�o Tir�n
(42.5415°N, 2.9642°W)
Time: 21:06:53
(UTC+00:00)

ATLAS 5 CENTAUR R/B - Pass Details

Date: 17 January 2021
Orbit: 511 x 1147 km, 63.3° (Epoch: 16 February)

Event Time Altitude Azimuth Distance (km) Brightness Sun altitude
Rises 19:36:13 0° 264° (W) 2,684 6.1 -27.2°
Reaches altitude 10° 19:39:00 10° 287° (WNW) 1,860 4.9 -27.7°
Maximum altitude 19:41:41 16° 327° (NNW) 1,565 3.9 -28.2°
Enters shadow 19:42:31 16° 341° (NNW) 1,628 3.8 -28.3°
